#timestamp,LO_Frequency,Hit,StdDev 
1635256815.1,286046999.9,N
1635256816.0,286046999.9,N
1635256835.8,286047002.4,N
1635256855.7,286046999.9,N
1635256875.5,286047000.2,N
1635256895.3,286047001.5,N
1635256915.2,286047001.3,N
1635256935.0,286047002.5,N
1635256935.9,286047002.5,N
1635256955.8,286047000.4,N
1635256975.6,286046998.5,N
1635256995.4,286046996.5,Y
1635257015.3,286046997.8,P
1635257035.1,286046997.4,N
1635257055.9,286046997.4,N
1635257075.7,286046997.6,N
1635257095.5,286046997.2,N
1635257115.4,286046995.2,Y
1635257135.2,286046996.7,P
1635257155.0,286046997.0,P
1635257155.9,286046997.0,P
1635257175.8,286046996.5,Y
1635257195.6,286047000.7,P
1635257215.5,286047000.8,N
1635257235.3,286046998.8,N
1635257255.1,286046997.2,N
1635257275.9,286046997.5,N
1635257295.7,286046999.4,N
1635257315.5,286046998.3,N
1635257335.4,286046997.1,N
1635257355.2,286047000.8,N
1635257375.1,286047000.7,N
1635257376.0,286047000.7,N
1635257395.8,286047000.4,N
1635257415.6,286046999.4,N
1635257435.5,286046998.6,N
1635257455.3,286046997.0,N
1635257475.1,286046999.4,N
1635257495.9,286046997.6,N
1635257515.7,286046995.4,Y
1635257535.6,286046996.9,P
1635257555.4,286046997.3,N
1635257575.2,286046999.0,N
1635257595.1,286046998.6,N
1635257596.0,286046998.6,N
1635257615.8,286046999.2,N
1635257635.7,286046999.1,N
1635257655.5,286046996.7,Y
1635257675.3,286046997.0,P
1635257695.2,286046999.4,N
1635257715.0,286046997.4,N
1635257715.9,286046997.4,N
1635257735.8,286046997.0,Y
1635257755.6,286046998.4,P
1635257775.4,286046999.7,N
1635257795.3,286047003.0,P
1635257815.1,286047005.2,N
1635257835.9,286047005.5,N
1635257855.7,286047005.4,N
1635257875.5,286047004.1,N
1635257895.4,286047002.6,N
1635257915.2,286047003.7,N
1635257935.1,286047000.5,N
1635257936.0,286047000.5,N
1635257955.8,286046996.8,N
1635257975.6,286046996.7,N
1635257995.5,286046997.0,N
1635258015.3,286046997.9,N
1635258035.1,286046995.5,N
1635258055.9,286046997.0,N
1635258075.7,286046997.0,N
1635258095.6,286046995.1,N
1635258115.4,286046995.0,N
1635258135.2,286046995.1,N
1635258155.1,286046995.0,N
1635258156.0,286046995.0,N
1635258175.8,286046997.9,N
1635258195.6,286046997.3,N
1635258215.5,286046996.7,N
1635258235.3,286046999.4,N
1635258255.2,286046996.8,N
1635258275.9,286046997.4,N
1635258295.7,286046995.8,N
1635258315.6,286046995.1,N
1635258335.4,286046995.4,N
1635258355.3,286046997.8,N
1635258375.1,286046995.4,N
1635258376.0,286046995.4,N
1635258395.8,286046993.5,N
1635258415.7,286046994.6,N
1635258435.5,286046993.9,N
1635258455.4,286046996.4,N
1635258475.2,286046993.3,Y
1635258495.0,286046997.3,P
1635258495.9,286046997.3,P
1635258515.8,286046998.0,P
1635258535.6,286046996.3,Y
1635258555.5,286046999.1,P
1635258575.3,286046999.4,N
1635258595.1,286047001.2,N
1635258615.9,286046998.1,N
1635258635.7,286046999.3,N
1635258655.5,286046996.8,N
1635258675.4,286046998.9,N
1635258695.2,286046997.5,N
1635258715.1,286046997.5,N
1635258716.0,286046997.5,N
1635258735.8,286046996.6,N
1635258755.6,286046996.5,N
1635258775.5,286046998.7,N
1635258795.3,286047001.2,N
1635258815.2,286046998.7,N
1635258835.9,286046997.2,N
1635258855.7,286046996.3,N
1635258875.6,286046993.7,Y
1635258895.4,286046995.8,P
1635258915.3,286046993.9,P
1635258935.1,286046993.8,P
1635258936.0,286046993.8,Y
1635258955.8,286046996.6,P
1635258975.7,286046999.5,N
1635258995.5,286046997.6,N
1635259015.3,286046999.5,N
1635259035.2,286046996.5,N
1635259055.0,286046999.3,N
1635259055.9,286046999.3,N
1635259075.8,286046998.7,N
1635259095.6,286046999.0,N
1635259115.4,286046996.9,N
1635259135.3,286046997.6,N
1635259155.1,286046999.5,N
1635259175.8,286046997.4,N
1635259195.7,286046998.0,N
1635259215.5,286046997.6,N
1635259235.4,286046995.4,Y
1635259255.2,286046995.3,P
1635259275.0,286046996.4,N
1635259275.9,286046996.4,P
1635259295.8,286046995.5,Y
1635259315.6,286046998.2,P
1635259335.5,286046998.1,N
1635259355.3,286047000.9,N
1635259375.1,286047000.3,N
1635259395.9,286047000.6,N
1635259415.7,286047001.1,N
1635259435.5,286046998.2,N
1635259455.4,286047000.8,N
1635259475.2,286047000.6,N
1635259495.1,286046999.0,N
1635259496.0,286046999.0,N
1635259515.8,286046999.3,N
1635259535.6,286046999.0,N
1635259555.5,286046998.8,N
1635259575.3,286046998.7,N
1635259595.2,286046999.2,N
1635259615.9,286046999.0,N
1635259635.7,286047000.7,N
1635259655.6,286046999.9,N
1635259675.4,286046999.3,N
1635259695.2,286046997.1,N
1635259715.1,286046997.3,N
1635259746.0,286046997.6,E
1635259755.0,286046996.7,N
1635259755.9,286046996.7,P
1635259775.8,286046999.3,P
1635259795.6,286046997.1,N
1635259815.4,286046997.4,N
1635259835.3,286046996.7,Y
1635259855.1,286046999.9,P
1635259875.9,286047002.8,N
1635259895.7,286047002.4,N
1635259915.5,286047000.0,N
1635259935.4,286047000.1,N
1635259955.2,286047001.1,N
1635259975.0,286046998.7,N
1635259976.0,286046998.7,N
1635259995.8,286046998.9,N
1635260015.6,286046996.5,N
1635260035.5,286046998.1,N
1635260055.3,286047000.4,N
1635260075.1,286047001.2,N
1635260095.9,286046998.7,N
1635260115.7,286046999.6,N
1635260135.5,286046997.2,N
1635260155.4,286046997.7,N
1635260175.2,286046997.4,N
1635260195.1,286046997.4,N
1635260196.0,286046997.4,N
1635260215.8,286046999.6,N
1635260235.6,286046999.4,N
1635260255.5,286046996.5,N
1635260275.3,286046997.1,N
1635260295.2,286046997.8,N
1635260315.9,286046997.2,N
1635260335.7,286046996.9,N
1635260355.6,286046998.0,N
1635260375.4,286046995.7,N
1635260395.2,286046995.4,N
